Location: Stockholm
(59.3330°N, 18.0500°E)
Time: 13:35:06
(UTC+02:00)

ISS - Pass Details

Date: 22 September 2022
Orbit: 414 x 417 km, 51.6° (Epoch: 01 October)

Event Time Altitude Azimuth Distance (km) Brightness Sun altitude
Rises 19:45:53 0° 232° (SW) 2,361 0.7 -8.2°
Reaches altitude 10° 19:48:21 10° 215° (SW) 1,499 -0.7 -8.5°
Maximum altitude 19:50:50 19° 167° (SSE) 1,057 -2.0 -8.8°
Enters shadow 19:52:57 12° 124° (SE) 1,392 -1.7 -9.0°
